| time (UTC) | temp F | wind direction | speed MPH | gust MPH | rain 1hr in | rain 24hr in | rain mn in | humidity % | barometer mb |
| 20260505124503 | 59 | 190 | 9.0 | 19.0 | 0.00 | 0.00 | 0.00 | 65 | 1007.5 |
| 20260505124025 | 59 | 192 | 7.0 | 14.0 | 0.00 | 0.00 | 0.00 | 67 | 1007.6 |
| 20260505123503 | 58 | 191 | 7.0 | 14.0 | 0.00 | 0.00 | 0.00 | 67 | 1007.5 |
| 20260505123003 | 58 | 191 | 7.0 | 14.0 | 0.00 | 0.00 | 0.00 | 69 | 1007.6 |
| 20260505122503 | 57 | 193 | 6.0 | 15.0 | 0.00 | 0.00 | 0.00 | 69 | 1007.6 |
| 20260505122024 | 57 | 198 | 5.0 | 15.0 | 0.00 | 0.00 | 0.00 | 70 | 1007.6 |
| 20260505121503 | 56 | 196 | 5.0 | 12.0 | 0.00 | 0.00 | 0.00 | 70 | 1007.6 |
| 20260505121003 | 56 | 188 | 6.0 | 14.0 | 0.00 | 0.00 | 0.00 | 71 | 1007.7 |
| 20260505120503 | 55 | 187 | 8.0 | 14.0 | 0.00 | 0.00 | 0.00 | 71 | 1007.6 |
| 20260505120024 | 55 | 191 | 7.0 | 14.0 | 0.00 | 0.00 | 0.00 | 71 | 1007.8 |
| 20260505115503 | 55 | 195 | 6.0 | 13.0 | 0.00 | 0.00 | 0.00 | 71 | 1007.8 |
| 20260505115003 | 55 | 188 | 5.0 | 12.0 | 0.00 | 0.00 | 0.00 | 72 | 1007.9 |
| 20260505114503 | 54 | 187 | 5.0 | 10.0 | 0.00 | 0.00 | 0.00 | 72 | 1007.9 |
| 20260505114003 | 54 | 191 | 5.0 | 12.0 | 0.00 | 0.00 | 0.00 | 72 | 1007.9 |
| 20260505113503 | 54 | 189 | 6.0 | 12.0 | 0.00 | 0.00 | 0.00 | 73 | 1007.9 |
| 20260505113003 | 54 | 185 | 7.0 | 13.0 | 0.00 | 0.00 | 0.00 | 73 | 1007.8 |
| 20260505112503 | 53 | 182 | 7.0 | 16.0 | 0.00 | 0.00 | 0.00 | 73 | 1007.8 |
| 20260505112003 | 53 | 183 | 7.0 | 16.0 | 0.00 | 0.00 | 0.00 | 74 | 1007.6 |
| 20260505111524 | 53 | 187 | 6.0 | 11.0 | 0.00 | 0.00 | 0.00 | 74 | 1007.7 |
| 20260505111003 | 52 | 188 | 6.0 | 12.0 | 0.00 | 0.00 | 0.00 | 74 | 1007.7 |
| 20260505110503 | 52 | 192 | 5.0 | 12.0 | 0.00 | 0.00 | 0.00 | 75 | 1007.7 |
| 20260505102003 | 49 | 183 | 5.0 | 9.0 | 0.00 | 0.00 | 0.00 | 79 | 1007.7 |
| 20260505101503 | 49 | 180 | 5.0 | 9.0 | 0.00 | 0.00 | 0.00 | 79 | 1007.7 |
| 20260505101003 | 48 | 179 | 5.0 | 9.0 | 0.00 | 0.00 | 0.00 | 79 | 1007.7 |
| 20260505100503 | 48 | 180 | 5.0 | 9.0 | 0.00 | 0.00 | 0.00 | 79 | 1007.6 |
| 20260505100024 | 48 | 184 | 4.0 | 7.0 | 0.00 | 0.00 | 0.00 | 79 | 1007.7 |
| 20260505095524 | 48 | 190 | 4.0 | 7.0 | 0.00 | 0.00 | 0.00 | 80 | 1007.6 |
| 20260505095003 | 48 | 189 | 4.0 | 8.0 | 0.00 | 0.00 | 0.00 | 80 | 1007.7 |
| 20260505094503 | 48 | 185 | 4.0 | 8.0 | 0.00 | 0.00 | 0.00 | 80 | 1007.5 |
| 20260505094003 | 48 | 185 | 4.0 | 6.0 | 0.00 | 0.00 | 0.00 | 80 | 1007.6 |
| 20260505093503 | 48 | 183 | 4.0 | 10.0 | 0.00 | 0.00 | 0.00 | 80 | 1007.5 |
| 20260505093024 | 48 | 185 | 4.0 | 10.0 | 0.00 | 0.00 | 0.00 | 80 | 1007.4 |
| 20260505092503 | 48 | 187 | 4.0 | 7.0 | 0.00 | 0.00 | 0.00 | 80 | 1007.4 |
| 20260505092024 | 48 | 186 | 4.0 | 7.0 | 0.00 | 0.00 | 0.00 | 80 | 1007.4 |
| 20260505091503 | 48 | 186 | 4.0 | 7.0 | 0.00 | 0.00 | 0.00 | 79 | 1007.4 |
| 20260505091003 | 48 | 185 | 4.0 | 7.0 | 0.00 | 0.00 | 0.00 | 79 | 1007.4 |
| 20260505090503 | 48 | 184 | 4.0 | 6.0 | 0.00 | 0.00 | 0.00 | 80 | 1007.5 |
| 20260505090024 | 48 | 187 | 4.0 | 8.0 | 0.00 | 0.00 | 0.00 | 80 | 1007.5 |
| 20260505085503 | 48 | 188 | 4.0 | 8.0 | 0.00 | 0.00 | 0.00 | 80 | 1007.5 |
| 20260505085003 | 48 | 187 | 3.0 | 7.0 | 0.00 | 0.00 | 0.00 | 80 | 1007.6 |
| 20260505084503 | 48 | 188 | 4.0 | 7.0 | 0.00 | 0.00 | 0.00 | 80 | 1007.6 |
| 20260505084003 | 48 | 188 | 4.0 | 7.0 | 0.00 | 0.00 | 0.00 | 80 | 1007.6 |
| 20260505083503 | 48 | 189 | 4.0 | 7.0 | 0.00 | 0.00 | 0.00 | 80 | 1007.6 |
| 20260505083003 | 48 | 190 | 4.0 | 7.0 | 0.00 | 0.00 | 0.00 | 80 | 1007.7 |
| 20260505082503 | 48 | 191 | 3.0 | 7.0 | 0.00 | 0.00 | 0.00 | 81 | 1007.7 |
| 20260505082024 | 48 | 192 | 3.0 | 8.0 | 0.00 | 0.00 | 0.00 | 81 | 1007.6 |
| 20260505081503 | 47 | 191 | 4.0 | 8.0 | 0.00 | 0.00 | 0.00 | 81 | 1007.6 |
| 20260505081003 | 47 | 188 | 4.0 | 8.0 | 0.00 | 0.00 | 0.00 | 82 | 1007.6 |
| 20260505080503 | 47 | 185 | 4.0 | 7.0 | 0.00 | 0.00 | 0.00 | 82 | 1007.7 |
| 20260505080003 | 47 | 186 | 4.0 | 7.0 | 0.00 | 0.00 | 0.00 | 82 | 1007.6 |
| 20260505075524 | 47 | 184 | 4.0 | 7.0 | 0.00 | 0.00 | 0.00 | 82 | 1007.6 |
| 20260505075003 | 47 | 185 | 3.0 | 6.0 | 0.00 | 0.00 | 0.00 | 82 | 1007.6 |
| 20260505074503 | 47 | 188 | 4.0 | 6.0 | 0.00 | 0.00 | 0.00 | 82 | 1007.6 |
| 20260505074024 | 47 | 188 | 4.0 | 7.0 | 0.00 | 0.00 | 0.00 | 81 | 1007.6 |
| 20260505073503 | 47 | 181 | 4.0 | 7.0 | 0.00 | 0.00 | 0.00 | 81 | 1007.6 |
| 20260505073003 | 47 | 178 | 5.0 | 8.0 | 0.00 | 0.00 | 0.00 | 81 | 1007.6 |
| 20260505072524 | 47 | 179 | 4.0 | 8.0 | 0.00 | 0.00 | 0.00 | 81 | 1007.6 |
| 20260505072003 | 47 | 186 | 4.0 | 7.0 | 0.00 | 0.00 | 0.00 | 81 | 1007.7 |
| 20260505071503 | 47 | 192 | 3.0 | 7.0 | 0.00 | 0.00 | 0.00 | 81 | 1007.6 |
| 20260505071003 | 47 | 191 | 3.0 | 7.0 | 0.00 | 0.00 | 0.00 | 81 | 1007.7 |
| 20260505070503 | 47 | 187 | 3.0 | 8.0 | 0.00 | 0.00 | 0.00 | 81 | 1007.6 |
| 20260505070004 | 47 | 192 | 3.0 | 9.0 | 0.00 | 0.00 | 0.00 | 81 | 1007.6 |
| 20260505065503 | 47 | 195 | 3.0 | 9.0 | 0.00 | 0.00 | 0.00 | 81 | 1007.6 |
| 20260505065003 | 47 | 189 | 4.0 | 8.0 | 0.00 | 0.00 | 0.00 | 81 | 1007.5 |
| 20260505064524 | 47 | 188 | 4.0 | 10.0 | 0.00 | 0.00 | 0.00 | 81 | 1007.5 |
| 20260505064003 | 47 | 189 | 4.0 | 10.0 | 0.00 | 0.00 | 0.00 | 81 | 1007.5 |
| 20260505063503 | 47 | 187 | 4.0 | 8.0 | 0.00 | 0.00 | 0.00 | 81 | 1007.5 |
| 20260505063003 | 47 | 186 | 4.0 | 8.0 | 0.00 | 0.00 | 0.00 | 81 | 1007.5 |
| 20260505062503 | 47 | 188 | 4.0 | 8.0 | 0.00 | 0.00 | 0.00 | 81 | 1007.4 |
| 20260505062003 | 47 | 188 | 4.0 | 8.0 | 0.00 | 0.00 | 0.00 | 82 | 1007.6 |
| 20260505061503 | 47 | 189 | 4.0 | 8.0 | 0.00 | 0.00 | 0.00 | 82 | 1007.5 |
| 20260505061003 | 47 | 190 | 3.0 | 8.0 | 0.00 | 0.00 | 0.00 | 82 | 1007.5 |
| 20260505060503 | 47 | 184 | 3.0 | 5.0 | 0.00 | 0.00 | 0.00 | 82 | 1007.5 |
| 20260505060003 | 47 | 182 | 2.0 | 6.0 | 0.00 | 0.00 | 0.00 | 82 | 1007.4 |
| 20260505055524 | 47 | 188 | 3.0 | 6.0 | 0.00 | 0.00 | 0.00 | 82 | 1007.6 |
| 20260505055003 | 46 | 212 | 2.0 | 6.0 | 0.00 | 0.00 | 0.00 | 83 | 1007.5 |
| 20260505054503 | 46 | 225 | 2.0 | 5.0 | 0.00 | 0.00 | 0.00 | 83 | 1007.6 |
| 20260505054003 | 45 | 199 | 2.0 | 5.0 | 0.00 | 0.00 | 0.00 | 82 | 1007.7 |
| 20260505053524 | 46 | 169 | 2.0 | 4.0 | 0.00 | 0.00 | 0.00 | 82 | 1007.6 |
| 20260505053003 | 46 | 169 | 2.0 | 4.0 | 0.00 | 0.00 | 0.00 | 82 | 1007.6 |
| 20260505052524 | 46 | 169 | 1.0 | 4.0 | 0.00 | 0.00 | 0.00 | 81 | 1007.5 |
| 20260505052003 | 46 | 169 | 1.0 | 4.0 | 0.00 | 0.00 | 0.00 | 81 | 1007.4 |
| 20260505051503 | 47 | 167 | 2.0 | 6.0 | 0.00 | 0.00 | 0.00 | 81 | 1007.4 |
| 20260505051003 | 47 | 166 | 2.0 | 6.0 | 0.00 | 0.00 | 0.00 | 81 | 1007.4 |
| 20260505050503 | 47 | 165 | 1.0 | 4.0 | 0.00 | 0.00 | 0.00 | 81 | 1007.4 |
| 20260505041503 | 47 | 162 | 0.0 | 4.0 | 0.00 | 0.00 | 0.00 | 80 | 1007.2 |
| 20260505041024 | 47 | 162 | 0.0 | 2.0 | 0.00 | 0.00 | 0.00 | 80 | 1007.3 |
| 20260505040503 | 48 | 162 | 1.0 | 4.0 | 0.00 | 0.00 | 0.00 | 79 | 1007.3 |
| 20260505040004 | 48 | 162 | 2.0 | 5.0 | 0.00 | 0.00 | 0.00 | 79 | 1007.3 |
| 20260505035503 | 48 | 161 | 2.0 | 5.0 | 0.00 | 0.00 | 0.00 | 78 | 1007.2 |
| 20260505035003 | 48 | 160 | 0.0 | 4.0 | 0.00 | 0.00 | 0.00 | 78 | 1007.3 |
| 20260505034503 | 48 | 0 | 0.0 | 0.0 | 0.00 | 0.00 | 0.00 | 77 | 1007.3 |
| 20260505034003 | 49 | 0 | 0.0 | 0.0 | 0.00 | 0.00 | 0.00 | 77 | 1007.3 |
| 20260505033524 | 49 | 0 | 0.0 | 0.0 | 0.00 | 0.00 | 0.00 | 77 | 1007.4 |
| 20260505033003 | 49 | 0 | 0.0 | 0.0 | 0.00 | 0.00 | 0.00 | 77 | 1007.2 |
| 20260505032503 | 49 | 0 | 0.0 | 0.0 | 0.00 | 0.00 | 0.00 | 77 | 1007.2 |
| 20260505032003 | 49 | 0 | 0.0 | 0.0 | 0.00 | 0.00 | 0.00 | 77 | 1007.2 |
| 20260505031503 | 49 | 0 | 0.0 | 0.0 | 0.00 | 0.00 | 0.00 | 76 | 1007.2 |
| 20260505031003 | 49 | 0 | 0.0 | 0.0 | 0.00 | 0.00 | 0.00 | 76 | 1007.3 |
| 20260505030503 | 49 | 0 | 0.0 | 0.0 | 0.00 | 0.00 | 0.00 | 75 | 1007.2 |
| 20260505030003 | 50 | 160 | 0.0 | 2.0 | 0.00 | 0.00 | 0.00 | 75 | 1007.2 |
| 20260505025503 | 50 | 160 | 0.0 | 2.0 | 0.00 | 0.00 | 0.00 | 74 | 1007.4 |
| 20260505025004 | 50 | 160 | 1.0 | 4.0 | 0.00 | 0.00 | 0.00 | 74 | 1007.5 |
| 20260505024503 | 51 | 160 | 2.0 | 5.0 | 0.00 | 0.00 | 0.00 | 74 | 1007.4 |
| 20260505024003 | 51 | 160 | 3.0 | 5.0 | 0.00 | 0.00 | 0.00 | 74 | 1007.4 |
| 20260505023503 | 51 | 155 | 2.0 | 6.0 | 0.00 | 0.00 | 0.00 | 73 | 1007.5 |
| 20260505023003 | 51 | 148 | 2.0 | 6.0 | 0.00 | 0.00 | 0.00 | 73 | 1007.5 |
| 20260505022524 | 52 | 146 | 2.0 | 4.0 | 0.00 | 0.00 | 0.00 | 73 | 1007.5 |
| 20260505022024 | 52 | 146 | 2.0 | 4.0 | 0.00 | 0.00 | 0.00 | 73 | 1007.5 |
| 20260505021503 | 52 | 146 | 2.0 | 4.0 | 0.00 | 0.00 | 0.00 | 73 | 1007.6 |
| 20260505021003 | 52 | 146 | 2.0 | 4.0 | 0.00 | 0.00 | 0.00 | 73 | 1007.5 |
| 20260505020503 | 52 | 146 | 2.0 | 4.0 | 0.00 | 0.00 | 0.00 | 74 | 1007.5 |
| 20260505020003 | 52 | 146 | 2.0 | 3.0 | 0.00 | 0.00 | 0.00 | 74 | 1007.6 |
| 20260505015503 | 53 | 146 | 2.0 | 3.0 | 0.00 | 0.00 | 0.00 | 74 | 1007.5 |
| 20260505015003 | 53 | 146 | 2.0 | 3.0 | 0.00 | 0.00 | 0.00 | 74 | 1007.5 |
| 20260505014503 | 53 | 146 | 2.0 | 3.0 | 0.00 | 0.00 | 0.00 | 73 | 1007.5 |
| 20260505014003 | 53 | 146 | 1.0 | 3.0 | 0.00 | 0.00 | 0.00 | 73 | 1007.4 |
| 20260505013503 | 53 | 146 | 1.0 | 3.0 | 0.00 | 0.00 | 0.00 | 73 | 1007.3 |
| 20260505013003 | 53 | 146 | 1.0 | 3.0 | 0.00 | 0.00 | 0.00 | 73 | 1007.4 |
| 20260505012524 | 53 | 146 | 2.0 | 3.0 | 0.00 | 0.00 | 0.00 | 72 | 1007.4 |
| 20260505012003 | 54 | 146 | 2.0 | 5.0 | 0.00 | 0.00 | 0.00 | 72 | 1007.3 |
| 20260505011524 | 54 | 156 | 3.0 | 7.0 | 0.00 | 0.00 | 0.00 | 72 | 1007.3 |
| 20260505011003 | 53 | 166 | 3.0 | 7.0 | 0.00 | 0.00 | 0.00 | 72 | 1007.3 |
| 20260505010503 | 53 | 173 | 2.0 | 5.0 | 0.00 | 0.00 | 0.00 | 72 | 1007.2 |
| 20260505010003 | 53 | 189 | 1.0 | 5.0 | 0.00 | 0.00 | 0.00 | 73 | 1007.2 |
| 20260505005503 | 53 | 0 | 0.0 | 0.0 | 0.00 | 0.00 | 0.00 | 72 | 1006.9 |
| 20260505005004 | 53 | 0 | 0.0 | 0.0 | 0.00 | 0.00 | 0.00 | 72 | 1006.8 |
| 20260505004503 | 53 | 0 | 0.0 | 0.0 | 0.00 | 0.00 | 0.00 | 71 | 1006.7 |
| 20260505004003 | 53 | 0 | 0.0 | 0.0 | 0.00 | 0.00 | 0.00 | 70 | 1006.5 |
| 20260505003503 | 54 | 0 | 0.0 | 0.0 | 0.00 | 0.00 | 0.00 | 69 | 1006.4 |
| 20260505003003 | 54 | 0 | 0.0 | 0.0 | 0.00 | 0.00 | 0.00 | 69 | 1006.4 |
| 20260505002503 | 54 | 0 | 0.0 | 0.0 | 0.00 | 0.00 | 0.00 | 69 | 1006.3 |
| 20260505002024 | 55 | 0 | 0.0 | 0.0 | 0.00 | 0.00 | 0.00 | 68 | 1006.2 |
| 20260505001524 | 55 | 0 | 0.0 | 0.0 | 0.00 | 0.00 | 0.00 | 68 | 1006.3 |
| 20260505001003 | 55 | 250 | 1.0 | 3.0 | 0.00 | 0.00 | 0.00 | 67 | 1006.3 |
| 20260505000503 | 56 | 255 | 1.0 | 3.0 | 0.00 | 0.00 | 0.00 | 66 | 1006.3 |
| 20260505000003 | 56 | 263 | 0.0 | 3.0 | 0.00 | 0.00 | 0.00 | 66 | 1006.1 |
| 20260504235503 | 56 | 0 | 0.0 | 0.0 | 0.00 | 0.00 | 0.00 | 66 | 1006.1 |
| 20260504235003 | 56 | 0 | 0.0 | 0.0 | 0.00 | 0.00 | 0.00 | 65 | 1006.1 |
| 20260504234503 | 56 | 0 | 0.0 | 0.0 | 0.00 | 0.00 | 0.00 | 65 | 1006.0 |
| 20260504234003 | 56 | 0 | 0.0 | 0.0 | 0.00 | 0.00 | 0.00 | 66 | 1005.9 |
| 20260504233503 | 56 | 265 | 0.0 | 1.0 | 0.00 | 0.00 | 0.00 | 66 | 1005.8 |
| 20260504233003 | 56 | 265 | 0.0 | 2.0 | 0.00 | 0.00 | 0.00 | 66 | 1005.8 |
| 20260504232503 | 57 | 265 | 0.0 | 2.0 | 0.00 | 0.00 | 0.00 | 64 | 1005.7 |
| 20260504232024 | 57 | 265 | 0.0 | 2.0 | 0.00 | 0.00 | 0.00 | 64 | 1005.6 |
| 20260504231503 | 58 | 265 | 0.0 | 2.0 | 0.00 | 0.00 | 0.00 | 63 | 1005.7 |
| 20260504231003 | 58 | 265 | 0.0 | 2.0 | 0.00 | 0.00 | 0.00 | 60 | 1005.6 |
| 20260504230503 | 59 | 265 | 1.0 | 6.0 | 0.00 | 0.00 | 0.00 | 60 | 1005.6 |
| 20260504230003 | 59 | 265 | 2.0 | 6.0 | 0.00 | 0.00 | 0.00 | 60 | 1005.5 |
| 20260504225503 | 59 | 265 | 2.0 | 4.0 | 0.00 | 0.00 | 0.00 | 60 | 1005.5 |
| 20260504225003 | 59 | 260 | 2.0 | 5.0 | 0.00 | 0.00 | 0.00 | 60 | 1005.5 |
| 20260504224524 | 59 | 261 | 2.0 | 6.0 | 0.00 | 0.00 | 0.00 | 59 | 1005.3 |
| 20260504224003 | 59 | 270 | 3.0 | 9.0 | 0.00 | 0.00 | 0.00 | 59 | 1005.3 |
| 20260504223503 | 59 | 268 | 4.0 | 9.0 | 0.00 | 0.00 | 0.00 | 58 | 1005.3 |
| 20260504223003 | 59 | 265 | 3.0 | 8.0 | 0.00 | 0.00 | 0.00 | 60 | 1005.2 |
| 20260504222503 | 59 | 261 | 4.0 | 11.0 | 0.00 | 0.00 | 0.00 | 59 | 1005.1 |
| 20260504222003 | 60 | 253 | 5.0 | 13.0 | 0.00 | 0.00 | 0.00 | 57 | 1005.1 |
| 20260504221503 | 60 | 242 | 6.0 | 13.0 | 0.00 | 0.00 | 0.00 | 57 | 1005.2 |
| 20260504221003 | 60 | 237 | 7.0 | 12.0 | 0.00 | 0.00 | 0.00 | 56 | 1005.1 |
| 20260504220503 | 60 | 240 | 7.0 | 16.0 | 0.00 | 0.00 | 0.00 | 57 | 1005.3 |
| 20260504220024 | 61 | 241 | 9.0 | 16.0 | 0.00 | 0.00 | 0.00 | 56 | 1005.3 |
| 20260504215524 | 60 | 246 | 9.0 | 20.0 | 0.00 | 0.00 | 0.00 | 56 | 1005.3 |
| 20260504215003 | 60 | 258 | 7.0 | 17.0 | 0.00 | 0.00 | 0.00 | 57 | 1005.2 |
| 20260504214503 | 61 | 252 | 9.0 | 19.0 | 0.00 | 0.00 | 0.00 | 56 | 1005.1 |
| 20260504214003 | 61 | 249 | 10.0 | 19.0 | 0.00 | 0.00 | 0.00 | 55 | 1004.9 |
| 20260504213503 | 61 | 248 | 10.0 | 20.0 | 0.00 | 0.00 | 0.00 | 55 | 1004.9 |
| 20260504213003 | 61 | 249 | 11.0 | 20.0 | 0.00 | 0.00 | 0.00 | 55 | 1004.9 |
| 20260504212503 | 61 | 250 | 11.0 | 20.0 | 0.00 | 0.00 | 0.00 | 55 | 1004.8 |
| 20260504212003 | 61 | 247 | 11.0 | 20.0 | 0.00 | 0.00 | 0.00 | 54 | 1004.9 |
| 20260504211503 | 62 | 250 | 10.0 | 19.0 | 0.00 | 0.00 | 0.00 | 53 | 1004.7 |
| 20260504211003 | 62 | 251 | 10.0 | 19.0 | 0.00 | 0.00 | 0.00 | 54 | 1004.7 |
| 20260504210503 | 63 | 248 | 9.0 | 19.0 | 0.00 | 0.00 | 0.00 | 55 | 1004.7 |
| 20260504210004 | 62 | 244 | 8.0 | 19.0 | 0.00 | 0.00 | 0.00 | 55 | 1004.6 |
| 20260504205503 | 62 | 245 | 9.0 | 19.0 | 0.00 | 0.00 | 0.00 | 57 | 1004.7 |
| 20260504205024 | 61 | 243 | 10.0 | 20.0 | 0.00 | 0.00 | 0.00 | 56 | 1004.6 |
| 20260504204503 | 62 | 247 | 10.0 | 20.0 | 0.00 | 0.00 | 0.00 | 55 | 1004.6 |
| 20260504204003 | 62 | 248 | 11.0 | 23.0 | 0.00 | 0.00 | 0.00 | 56 | 1004.5 |
| 20260504203524 | 61 | 249 | 12.0 | 23.0 | 0.00 | 0.00 | 0.00 | 56 | 1004.5 |
| 20260504203003 | 61 | 252 | 9.0 | 20.0 | 0.00 | 0.00 | 0.00 | 56 | 1004.3 |
| 20260504202503 | 62 | 251 | 10.0 | 28.0 | 0.00 | 0.00 | 0.00 | 57 | 1004.4 |
| 20260504202003 | 61 | 250 | 12.0 | 28.0 | 0.00 | 0.00 | 0.00 | 57 | 1004.5 |
| 20260504201503 | 61 | 245 | 10.0 | 20.0 | 0.00 | 0.00 | 0.00 | 58 | 1004.6 |
| 20260504201003 | 61 | 247 | 11.0 | 19.0 | 0.00 | 0.00 | 0.00 | 59 | 1004.5 |
| 20260504200503 | 60 | 245 | 10.0 | 19.0 | 0.00 | 0.00 | 0.00 | 60 | 1004.4 |
| 20260504200024 | 60 | 236 | 8.0 | 14.0 | 0.00 | 0.01 | 0.00 | 61 | 1004.4 |
| 20260504195503 | 60 | 229 | 8.0 | 15.0 | 0.00 | 0.01 | 0.00 | 60 | 1004.3 |
| 20260504195003 | 60 | 231 | 9.0 | 15.0 | 0.00 | 0.01 | 0.00 | 60 | 1004.3 |
| 20260504194503 | 60 | 239 | 9.0 | 18.0 | 0.00 | 0.02 | 0.00 | 60 | 1004.4 |
| 20260504194003 | 60 | 239 | 10.0 | 18.0 | 0.00 | 0.02 | 0.00 | 60 | 1004.4 |
| 20260504193503 | 60 | 238 | 11.0 | 19.0 | 0.00 | 0.02 | 0.00 | 60 | 1004.4 |
| 20260504193003 | 60 | 240 | 12.0 | 23.0 | 0.00 | 0.02 | 0.00 | 60 | 1004.4 |
| 20260504192503 | 61 | 237 | 12.0 | 23.0 | 0.00 | 0.02 | 0.00 | 59 | 1004.4 |
| 20260504192003 | 61 | 232 | 11.0 | 19.0 | 0.00 | 0.02 | 0.00 | 60 | 1004.4 |
| 20260504191503 | 61 | 237 | 10.0 | 19.0 | 0.00 | 0.03 | 0.00 | 59 | 1004.5 |
| 20260504191024 | 61 | 239 | 9.0 | 19.0 | 0.00 | 0.03 | 0.00 | 60 | 1004.5 |
| 20260504190504 | 60 | 234 | 10.0 | 20.0 | 0.00 | 0.03 | 0.00 | 63 | 1004.5 |
| 20260504190003 | 58 | 233 | 11.0 | 23.0 | 0.00 | 0.03 | 0.00 | 62 | 1004.5 |
| 20260504185503 | 58 | 233 | 12.0 | 25.0 | 0.00 | 0.04 | 0.00 | 63 | 1004.5 |
| 20260504185003 | 58 | 233 | 13.0 | 25.0 | 0.00 | 0.04 | 0.00 | 62 | 1004.6 |
| 20260504184503 | 58 | 233 | 12.0 | 23.0 | 0.00 | 0.04 | 0.00 | 61 | 1004.6 |
| 20260504184003 | 58 | 233 | 11.0 | 25.0 | 0.00 | 0.05 | 0.00 | 61 | 1004.8 |
| 20260504183503 | 58 | 235 | 11.0 | 25.0 | 0.00 | 0.05 | 0.00 | 63 | 1004.7 |
| 20260504183003 | 58 | 232 | 13.0 | 26.0 | 0.00 | 0.05 | 0.00 | 61 | 1004.8 |
| 20260504182503 | 59 | 233 | 13.0 | 26.0 | 0.00 | 0.06 | 0.00 | 60 | 1004.8 |
| 20260504182003 | 59 | 238 | 11.0 | 20.0 | 0.00 | 0.06 | 0.00 | 62 | 1004.8 |
| 20260504181503 | 58 | 237 | 10.0 | 21.0 | 0.00 | 0.07 | 0.00 | 63 | 1004.9 |
| 20260504181003 | 58 | 235 | 10.0 | 21.0 | 0.00 | 0.07 | 0.00 | 62 | 1005.0 |
| 20260504180503 | 57 | 232 | 7.0 | 20.0 | 0.00 | 0.07 | 0.00 | 63 | 1005.0 |
| 20260504180003 | 56 | 228 | 6.0 | 12.0 | 0.00 | 0.08 | 0.00 | 64 | 1005.1 |
| 20260504175503 | 56 | 231 | 8.0 | 18.0 | 0.00 | 0.08 | 0.00 | 66 | 1005.2 |
| 20260504175003 | 56 | 234 | 11.0 | 20.0 | 0.00 | 0.09 | 0.00 | 64 | 1005.3 |
| 20260504174503 | 55 | 236 | 10.0 | 20.0 | 0.00 | 0.09 | 0.00 | 64 | 1005.4 |
| 20260504174003 | 55 | 236 | 9.0 | 17.0 | 0.00 | 0.09 | 0.00 | 64 | 1005.5 |
| 20260504173503 | 55 | 237 | 10.0 | 18.0 | 0.00 | 0.10 | 0.00 | 63 | 1005.2 |
| 20260504173003 | 56 | 233 | 8.0 | 18.0 | 0.00 | 0.10 | 0.00 | 61 | 1005.2 |
| 20260504172524 | 56 | 227 | 6.0 | 13.0 | 0.00 | 0.11 | 0.00 | 62 | 1005.1 |
| 20260504172024 | 56 | 229 | 7.0 | 14.0 | 0.00 | 0.11 | 0.00 | 59 | 1005.0 |
| 20260504171503 | 56 | 228 | 6.0 | 14.0 | 0.00 | 0.12 | 0.00 | 60 | 1005.1 |
| 20260504171024 | 56 | 210 | 5.0 | 12.0 | 0.00 | 0.12 | 0.00 | 60 | 1005.0 |
| 20260504170503 | 56 | 204 | 6.0 | 12.0 | 0.00 | 0.13 | 0.00 | 59 | 1004.9 |
| 20260504151003 | 57 | 242 | 7.0 | 16.0 | 0.00 | 0.28 | 0.00 | 53 | 1004.9 |
| 20260504150503 | 57 | 239 | 7.0 | 16.0 | 0.00 | 0.28 | 0.00 | 56 | 1005.3 |
| 20260504141003 | 54 | 241 | 11.0 | 19.0 | 0.00 | 0.33 | 0.00 | 52 | 1006.1 |
| 20260504140503 | 55 | 234 | 9.0 | 17.0 | 0.00 | 0.33 | 0.00 | 52 | 1006.1 |
| 20260504130503 | 53 | 245 | 8.0 | 16.0 | 0.00 | 0.37 | 0.00 | 53 | 1006.6 |